Weather observations for the past three days for
Novato / Gnoss Field
| Date | Time (pdt) | Wind (kph) | Vis. (km) | Weather | Sky Cond. | Temperature (ºC) | Relative Humidity | Wind Chill (°C) | Heat Index (°C) | Pressure | Precipitation (cm) | ||||||
|---|---|---|---|---|---|---|---|---|---|---|---|---|---|---|---|---|---|
| Air | Dwpt | 6 hour | altimeter (cm) | sea level (mb) | 1 hr | 3 hr | 6 hr | ||||||||||
| Max. | Min. | ||||||||||||||||
| 07 | 07:55 | SW 6 | 16.09 | Overcast | OVC007 | 12 | 11 | 94% | 76.48 | 0.0 | |||||||
| 07 | 07:35 | SW 7 | 16.09 | Overcast | OVC007 | 12 | 11 | 94% | 76.45 | 0.0 | |||||||
| 07 | 07:15 | S 6 | 16.09 | Overcast | OVC007 | 12 | 11 | 94% | 76.45 | 0.0 | |||||||
| 07 | 06:55 | SW 9 | 16.09 | Overcast | OVC007 | 12 | 11 | 94% | 76.43 | 0.0 | |||||||
| 07 | 06:35 | SW 9 | 16.09 | Overcast | OVC007 | 12 | 11 | 94% | 76.43 | 0.0 | |||||||
| 07 | 06:15 | S 7 | 16.09 | Overcast | OVC007 | 12 | 11 | 94% | 76.4 | 0.0 | |||||||
| 07 | 05:55 | Calm | 16.09 | Overcast | OVC007 | 12 | 11 | 94% | 76.4 | 0.0 | |||||||
| 07 | 05:35 | SW 13 | 16.09 | Overcast | OVC007 | 12 | 11 | 94% | 76.4 | 0.0 | |||||||
| 07 | 05:15 | Calm | 16.09 | Overcast | OVC007 | 12 | 11 | 94% | 76.4 | 0.0 | |||||||
| 07 | 04:55 | NW 7 | 16.09 | Overcast | OVC008 | 12 | 11 | 94% | 76.4 | 0.0 | |||||||
| 07 | 04:35 | Calm | 16.09 | Overcast | OVC007 | 12 | 11 | 94% | 76.4 | 0.0 | |||||||
| 07 | 03:55 | NE 6 | 16.09 | Overcast | OVC008 | 12 | 11 | 94% | 76.4 | 0.0 | |||||||
| 07 | 03:35 | SE 13 | 16.09 | Overcast | OVC007 | 13 | 12 | 94% | 76.4 | 0.0 | |||||||
| 07 | 03:15 | Calm | 16.09 | Overcast | OVC007 | 13 | 11 | 88% | 76.4 | 0.0 | |||||||
| 07 | 02:55 | Calm | 16.09 | Overcast | OVC008 | 12 | 11 | 94% | 76.43 | 0.0 | |||||||
| 07 | 02:35 | Calm | 16.09 | Overcast | OVC008 | 13 | 11 | 88% | 76.43 | 0.0 | |||||||
| 07 | 02:15 | Calm | 16.09 | Overcast | OVC008 | 13 | 11 | 88% | 76.43 | 0.0 | |||||||
| 07 | 01:55 | Calm | 16.09 | Overcast | OVC008 | 13 | 11 | 88% | 76.43 | 0.0 | |||||||
| 07 | 01:35 | S 6 | 16.09 | Overcast | OVC008 | 13 | 11 | 88% | 76.45 | 0.0 | |||||||
| 07 | 01:15 | S 6 | 16.09 | Overcast | OVC008 | 12 | 11 | 94% | 76.45 | 0.0 | |||||||
| 07 | 00:55 | Calm | 16.09 | Mostly Cloudy | BKN008 | 12 | 11 | 94% | 76.45 | 0.0 | |||||||
| 07 | 00:35 | W 13 | 16.09 | Partly Cloudy | SCT010 | 12 | 11 | 94% | 76.45 | 0.0 | |||||||
| 07 | 00:15 | Vrbl 6 | 16.09 | Overcast | OVC009 | 13 | 12 | 94% | 76.45 | 0.0 | |||||||
| 06 | 23:55 | Calm | 16.09 | Mostly Cloudy | BKN009 BKN013 | 13 | 12 | 94% | 76.45 | 0.0 | |||||||
| 06 | 23:35 | NE 13 | 16.09 | Fair | CLR | 12 | 12 | 100% | 76.43 | 0.0 | |||||||
| 06 | 23:15 | SW 7 | 16.09 | Fair | CLR | 12 | 11 | 94% | 76.4 | 0.0 | |||||||
| 06 | 22:55 | E 11 | 16.09 | Fair | CLR | 13 | 12 | 94% | 76.43 | 0.0 | |||||||
| 06 | 22:35 | NE 11 G 20 | 16.09 | Fair | CLR | 13 | 12 | 94% | 76.4 | 0.0 | |||||||
| 06 | 22:15 | E 11 | 16.09 | Fair | CLR | 13 | 12 | 94% | 76.4 | 0.0 | |||||||
| 06 | 21:35 | E 9 | 16.09 | Fair | CLR | 13 | 12 | 94% | 76.4 | 0.0 | |||||||
| 06 | 21:15 | SE 11 | 16.09 | Fair | CLR | 13 | 12 | 94% | 76.4 | 0.0 | |||||||
| 06 | 20:55 | E 9 | 16.09 | Fair | CLR | 14 | 12 | 88% | 76.4 | 0.0 | |||||||
| 06 | 20:35 | Calm | 16.09 | Fair | CLR | 14 | 12 | 88% | 76.4 | 0.0 | |||||||
| 06 | 20:15 | SE 7 | 16.09 | Fair | CLR | 14 | 12 | 88% | 76.38 | 0.0 | |||||||
| 06 | 19:55 | E 9 | 16.09 | Fair | CLR | 15 | 12 | 82% | 76.38 | 0.0 | |||||||
| 06 | 19:35 | NW 15 | 16.09 | Fair | CLR | 15 | 12 | 82% | 76.38 | 0.0 | |||||||
| 06 | 18:55 | N 15 | 16.09 | Fair | CLR | 18 | 13 | 73% | 76.38 | 0.0 | |||||||
| 06 | 18:35 | NW 20 | 16.09 | Fair | CLR | 18 | 13 | 73% | 76.38 | 0.0 | |||||||
| 06 | 18:15 | Calm | 16.09 | Fair | CLR | 19 | 13 | 68% | 76.38 | 0.0 | |||||||
| 06 | 17:55 | Vrbl 6 G 20 | 16.09 | Fair | CLR | 21 | 14 | 64% | 76.38 | 0.0 | |||||||
| 06 | 17:35 | Calm | 16.09 | Fair | CLR | 21 | 14 | 64% | 76.35 | 0.0 | |||||||
| 06 | 17:15 | Vrbl 7 G 20 | 16.09 | Fair | CLR | 22 | 15 | 65% | 76.35 | 0.0 | |||||||
| 06 | 16:55 | NW 20 | 16.09 | Fair | CLR | 22 | 15 | 65% | 76.35 | 0.0 | |||||||
| 06 | 16:35 | NW 13 G 28 | 16.09 | A Few Clouds | FEW034 | 22 | 15 | 65% | 76.35 | 0.0 | |||||||
| 06 | 16:15 | SW 24 | 16.09 | Mostly Cloudy | BKN034 | 22 | 15 | 65% | 76.35 | 0.0 | |||||||
| 06 | 15:55 | SW 19 G 30 | 16.09 | Overcast | OVC033 | 22 | 15 | 65% | 76.38 | 0.0 | |||||||
| 06 | 15:35 | N 9 G 20 | 16.09 | Mostly Cloudy | BKN032 | 22 | 15 | 65% | 76.38 | 0.0 | |||||||
| 06 | 15:15 | N 20 | 16.09 | Mostly Cloudy | BKN032 | 22 | 16 | 69% | 76.38 | 0.0 | |||||||
| 06 | 14:55 | N 17 | 16.09 | Overcast | OVC033 | 23 | 15 | 61% | 76.43 | 0.0 | |||||||
| 06 | 14:35 | NW 20 | 16.09 | Overcast | OVC035 | 23 | 15 | 61% | 76.43 | 0.0 | |||||||
| 06 | 14:15 | NW 11 G 24 | 16.09 | Mostly Cloudy | BKN036 | 23 | 14 | 57% | 76.43 | 0.0 | |||||||
| 06 | 13:55 | Vrbl 7 G 20 | 16.09 | Mostly Cloudy | BKN038 | 24 | 15 | 57% | 25 | 76.43 | 0.0 | ||||||
| 06 | 13:35 | N 17 | 16.09 | Overcast | OVC040 | 25 | 16 | 57% | 26 | 76.45 | 0.0 | ||||||
| 06 | 13:15 | Vrbl 7 | 16.09 | Overcast | OVC039 | 23 | 13 | 53% | 76.45 | 0.0 | |||||||
| 06 | 12:55 | Calm | 16.09 | Overcast | OVC040 | 23 | 13 | 53% | 76.48 | 0.0 | |||||||
| 06 | 12:35 | Vrbl 6 | 16.09 | Partly Cloudy | SCT041 | 23 | 13 | 53% | 76.5 | 0.0 | |||||||
| 06 | 12:15 | Calm | 16.09 | A Few Clouds | FEW032 | 23 | 13 | 53% | 76.5 | 0.0 | |||||||
| 06 | 11:55 | Calm | 16.09 | Fair | CLR | 23 | 14 | 57% | 76.53 | 0.0 | |||||||
| 06 | 11:35 | Calm | 16.09 | Fair | CLR | 22 | 14 | 61% | 76.53 | 0.0 | |||||||
| 06 | 11:15 | Calm | 16.09 | Fair | CLR | 21 | 13 | 60% | 76.53 | 0.0 | |||||||
| 06 | 10:55 | Calm | 16.09 | A Few Clouds | FEW028 | 20 | 13 | 64% | 76.53 | 0.0 | |||||||
| 06 | 10:35 | Calm | 14.48 | Fair | CLR | 20 | 13 | 64% | 76.53 | 0.0 | |||||||
| 06 | 10:15 | Calm | 16.09 | Fair | CLR | 19 | 12 | 64% | 76.53 | 0.0 | |||||||
| 06 | 09:55 | Calm | 16.09 | Fair | CLR | 18 | 12 | 68% | 76.56 | 0.0 | |||||||
| 06 | 09:35 | Calm | 16.09 | Fair | CLR | 18 | 12 | 68% | 76.56 | 0.0 | |||||||
| 06 | 09:15 | Calm | 16.09 | Fair | CLR | 18 | 12 | 68% | 76.56 | 0.0 | |||||||
| 06 | 08:55 | Calm | 16.09 | Partly Cloudy | SCT048 | 17 | 12 | 73% | 76.56 | 0.0 | |||||||
| 06 | 08:35 | Calm | 16.09 | Overcast | OVC047 | 16 | 12 | 77% | 76.56 | 0.0 | |||||||
| 06 | 08:15 | Calm | 16.09 | Mostly Cloudy | BKN047 | 15 | 12 | 82% | 76.56 | 0.0 | |||||||
| 06 | 07:55 | Calm | 16.09 | Partly Cloudy | SCT047 | 15 | 12 | 82% | 76.56 | 0.0 | |||||||
| 06 | 07:35 | Calm | 16.09 | Mostly Cloudy | BKN047 | 15 | 12 | 82% | 76.53 | 0.0 | |||||||
| 06 | 07:15 | Calm | 16.09 | Overcast | OVC046 | 14 | 12 | 88% | 76.53 | 0.0 | |||||||
| 06 | 06:55 | N 6 | 16.09 | Overcast | OVC045 | 14 | 12 | 88% | 76.5 | 0.0 | |||||||
| 06 | 06:35 | N 6 | 16.09 | Overcast | OVC045 | 14 | 12 | 88% | 76.5 | 0.0 | |||||||
| 06 | 06:15 | NW 6 | 16.09 | Overcast | OVC044 | 13 | 12 | 94% | 76.5 | 0.0 | |||||||
| 06 | 05:55 | N 7 | 16.09 | Overcast | OVC044 | 14 | 12 | 88% | 76.5 | 0.0 | |||||||
| 06 | 05:35 | Calm | 16.09 | Overcast | OVC044 | 14 | 12 | 88% | 76.48 | 0.0 | |||||||
| 06 | 05:15 | Calm | 16.09 | Overcast | OVC043 | 14 | 12 | 88% | 76.48 | 0.0 | |||||||
| 06 | 04:55 | Calm | 16.09 | Overcast | OVC043 | 14 | 12 | 88% | 76.48 | 0.0 | |||||||
| 06 | 04:35 | Calm | 16.09 | Overcast | OVC042 | 14 | 11 | 82% | 76.45 | 0.0 | |||||||
| 06 | 04:15 | Calm | 16.09 | Overcast | OVC042 | 14 | 12 | 88% | 76.45 | 0.0 | |||||||
| 06 | 03:50 | Calm | 16.09 | Overcast | OVC042 | 14 | 11 | 82% | 76.43 | 0.0 | |||||||
| 06 | 03:35 | Calm | 16.09 | Overcast | OVC043 | 14 | 11 | 82% | 76.43 | 0.0 | |||||||
| 06 | 03:15 | Calm | 16.09 | Overcast | OVC043 | 14 | 11 | 82% | 76.43 | 0.0 | |||||||
| 06 | 02:55 | Calm | 16.09 | Overcast | OVC043 | 14 | 11 | 82% | 76.43 | 0.0 | |||||||
| 06 | 02:35 | NW 7 | 16.09 | Overcast | OVC042 | 14 | 11 | 82% | 76.43 | 0.0 | |||||||
| 06 | 02:15 | NW 6 | 16.09 | Overcast | OVC041 | 14 | 11 | 82% | 76.43 | 0.0 | |||||||
| 06 | 01:55 | NW 7 | 16.09 | Overcast | OVC041 | 14 | 11 | 82% | 76.43 | 0.0 | |||||||
| 06 | 01:35 | N 7 | 16.09 | Overcast | OVC042 | 14 | 11 | 82% | 76.43 | 0.0 | |||||||
| 06 | 01:15 | NW 9 | 16.09 | Overcast | OVC043 | 14 | 11 | 82% | 76.43 | 0.0 | |||||||
| 06 | 00:55 | Calm | 16.09 | Overcast | OVC041 | 14 | 11 | 82% | 76.43 | 0.0 | |||||||
| 06 | 00:35 | NW 6 | 16.09 | Overcast | OVC038 | 14 | 11 | 82% | 76.4 | 0.0 | |||||||
| 06 | 00:15 | Calm | 16.09 | Overcast | OVC036 | 14 | 11 | 82% | 76.4 | 0.0 | |||||||
| 05 | 23:55 | Calm | 16.09 | Overcast | OVC036 | 14 | 11 | 82% | 76.4 | 0.0 | |||||||
| 05 | 23:35 | Calm | 16.09 | Overcast | OVC036 | 14 | 10 | 77% | 76.38 | 0.0 | |||||||
| 05 | 23:15 | E 7 | 16.09 | Overcast | OVC035 | 14 | 11 | 82% | 76.38 | 0.0 | |||||||
| 05 | 22:55 | NE 6 | 16.09 | Overcast | OVC035 | 14 | 11 | 82% | 76.35 | 0.0 | |||||||
| 05 | 22:35 | Calm | 16.09 | Overcast | OVC035 | 14 | 11 | 82% | 76.35 | 0.0 | |||||||
| 05 | 22:15 | N 9 | 16.09 | Overcast | OVC036 | 14 | 11 | 82% | 76.35 | 0.0 | |||||||
| 05 | 21:55 | Vrbl 6 | 16.09 | Overcast | OVC037 | 14 | 11 | 82% | 76.33 | 0.0 | |||||||
| 05 | 21:35 | NW 11 | 16.09 | Overcast | OVC037 | 14 | 11 | 82% | 76.33 | 0.0 | |||||||
| 05 | 21:15 | NW 15 | 16.09 | Overcast | FEW029 OVC037 | 15 | 11 | 77% | 76.3 | 0.0 | |||||||
| 05 | 20:55 | N 7 | 16.09 | Overcast | SCT029 OVC037 | 15 | 11 | 77% | 76.28 | 0.0 | |||||||
| 05 | 20:35 | N 6 | 16.09 | Overcast | FEW027 OVC037 | 15 | 11 | 77% | 76.25 | 0.0 | |||||||
| 05 | 20:15 | Calm | 16.09 | Overcast | FEW028 OVC037 | 15 | 11 | 77% | 76.23 | 0.0 | |||||||
| 05 | 19:55 | Vrbl 7 G 22 | 16.09 | Overcast | SCT029 OVC036 | 15 | 10 | 72% | 76.23 | 0.0 | |||||||
| 05 | 19:35 | SW 15 | 16.09 | Overcast | FEW030 OVC036 | 15 | 10 | 72% | 76.2 | 0.0 | |||||||
| 05 | 19:15 | SW 17 G 28 | 16.09 | Overcast | OVC037 | 16 | 11 | 72% | 76.17 | 0.0 | |||||||
| 05 | 18:55 | SW 19 G 31 | 16.09 | Overcast | OVC036 | 16 | 11 | 72% | 76.17 | 0.0 | |||||||
| 05 | 18:35 | SW 20 G 30 | 16.09 | Overcast | OVC033 | 16 | 11 | 72% | 76.15 | 0.0 | |||||||
| 05 | 18:15 | SW 28 | 16.09 | Overcast | OVC035 | 16 | 11 | 72% | 76.15 | 0.0 | |||||||
| 05 | 17:55 | SW 22 | 16.09 | Overcast | OVC035 | 17 | 11 | 68% | 76.15 | 0.0 | |||||||
| 05 | 17:35 | SW 26 | 16.09 | Overcast | OVC033 | 17 | 11 | 68% | 76.12 | 0.0 | |||||||
| 05 | 17:15 | SW 24 | 16.09 | Overcast | OVC030 | 17 | 12 | 73% | 76.12 | 0.0 | |||||||
| 05 | 16:55 | SW 28 | 16.09 | Overcast | OVC030 | 17 | 12 | 73% | 76.12 | 0.0 | |||||||
| 05 | 16:35 | SW 17 G 31 | 16.09 | Overcast | OVC030 | 18 | 12 | 68% | 76.12 | 0.0 | |||||||
| 05 | 16:15 | SW 22 | 16.09 | Overcast | OVC030 | 18 | 12 | 68% | 76.12 | 0.0 | |||||||
| 05 | 15:55 | SW 24 | 16.09 | Overcast | OVC030 | 19 | 12 | 64% | 76.12 | 0.0 | |||||||
| 05 | 15:35 | SW 17 | 16.09 | Overcast | OVC030 | 18 | 12 | 68% | 76.12 | 0.0 | |||||||
| 05 | 15:15 | W 19 | 16.09 | Overcast | OVC030 | 18 | 12 | 68% | 76.12 | 0.0 | |||||||
| 05 | 14:55 | SW 22 | 16.09 | Overcast | OVC029 | 19 | 12 | 64% | 76.12 | 0.0 | |||||||
| 05 | 14:35 | SW 15 | 16.09 | Overcast | BKN030 OVC036 | 19 | 12 | 64% | 76.15 | 0.0 | |||||||
| 05 | 14:15 | W 9 | 16.09 | Overcast | OVC028 | 19 | 12 | 64% | 76.15 | 0.0 | |||||||
| 05 | 13:55 | Vrbl 7 | 16.09 | Overcast | OVC028 | 19 | 12 | 64% | 76.17 | 0.0 | |||||||
| 05 | 13:35 | Vrbl 7 G 19 | 16.09 | Overcast | OVC028 | 18 | 12 | 68% | 76.17 | 0.0 | |||||||
| 05 | 13:15 | SW 15 | 16.09 | Overcast | BKN029 OVC039 | 19 | 12 | 64% | 76.17 | 0.0 | |||||||
| 05 | 12:55 | SW 13 G 24 | 16.09 | Overcast | BKN028 OVC040 | 18 | 12 | 68% | 76.17 | 0.0 | |||||||
| 05 | 12:35 | W 15 | 16.09 | Overcast | OVC028 | 18 | 12 | 68% | 76.2 | 0.0 | |||||||
| 05 | 12:15 | Vrbl 6 G 20 | 16.09 | Overcast | OVC027 | 18 | 12 | 68% | 76.2 | 0.0 | |||||||
| 05 | 11:55 | NW 17 G 26 | 16.09 | Overcast | OVC026 | 18 | 12 | 68% | 76.17 | 0.0 | |||||||
| 05 | 11:35 | NW 19 | 16.09 | Overcast | OVC026 | 18 | 12 | 68% | 76.17 | 0.0 | |||||||
| 05 | 11:15 | NW 17 G 26 | 16.09 | Overcast | OVC027 | 17 | 12 | 73% | 76.17 | 0.0 | |||||||
| 05 | 10:55 | NW 19 | 16.09 | Overcast | BKN026 OVC033 | 17 | 11 | 68% | 76.17 | 0.0 | |||||||
| 05 | 10:35 | Vrbl 11 | 16.09 | Overcast | SCT029 SCT034 OVC065 | 16 | 11 | 72% | 76.17 | 0.0 | |||||||
| 05 | 10:15 | Vrbl 11 | 16.09 | Overcast | BKN036 BKN050 OVC065 | 16 | 11 | 72% | 76.15 | 0.0 | |||||||
| 05 | 09:55 | NW 17 G 26 | 16.09 | Overcast | SCT037 OVC050 | 15 | 11 | 77% | 76.17 | 0.0 | |||||||
| 05 | 09:35 | Vrbl 7 | 16.09 | Overcast | OVC050 | 15 | 11 | 77% | 76.17 | 0.0 | |||||||
| 05 | 09:15 | Vrbl 9 | 16.09 | Overcast | OVC050 | 15 | 11 | 77% | 76.15 | 0.0 | |||||||
| 05 | 08:35 | Vrbl 9 | 16.09 | Overcast | OVC050 | 15 | 11 | 77% | 76.12 | 0.0 | |||||||
| 05 | 08:15 | NW 9 G 19 | 16.09 | Overcast | OVC050 | 14 | 11 | 82% | 76.12 | 0.0 | |||||||
| 05 | 07:55 | Calm | 16.09 | Overcast | OVC050 | 14 | 12 | 88% | 76.1 | 0.0 | |||||||
| 05 | 07:35 | Calm | 16.09 | Overcast | OVC050 | 13 | 12 | 94% | 76.1 | 0.0 | |||||||
| 05 | 07:15 | Calm | 16.09 | Overcast | OVC050 | 13 | 12 | 94% | 76.1 | 0.0 | |||||||
| 05 | 06:55 | E 7 | 16.09 | Overcast | OVC050 | 13 | 12 | 94% | 76.1 | 0.0 | |||||||
| 05 | 06:35 | Calm | 16.09 | Overcast | OVC055 | 13 | 11 | 88% | 76.07 | 0.0 | |||||||
| 05 | 06:15 | W 7 | 16.09 | Overcast | FEW044 OVC055 | 13 | 11 | 88% | 76.05 | 0.0 | |||||||
| 05 | 05:55 | W 9 | 16.09 | Overcast | OVC050 | 13 | 11 | 88% | 76.07 | 0.0 | |||||||
| 05 | 05:35 | W 11 | 16.09 | Overcast | OVC050 | 13 | 11 | 88% | 76.05 | 0.0 | |||||||
| 05 | 05:15 | W 9 | 16.09 | Overcast | OVC049 | 13 | 11 | 88% | 76.07 | 0.0 | |||||||
| 05 | 04:55 | Vrbl 6 | 16.09 | Overcast | OVC050 | 13 | 11 | 88% | 76.05 | 0.0 | |||||||
| 05 | 04:35 | W 9 | 16.09 | Overcast | OVC050 | 13 | 11 | 88% | 76.07 | 0.0 | |||||||
| 05 | 04:15 | W 6 | 16.09 | Overcast | OVC050 | 13 | 11 | 88% | 76.05 | 0.0 | |||||||
| 05 | 03:55 | Calm | 16.09 | Overcast | FEW016 OVC055 | 12 | 11 | 94% | 76.07 | 0.0 | |||||||
| 05 | 03:35 | Calm | 16.09 | Overcast | OVC060 | 13 | 11 | 88% | 76.1 | 0.0 | |||||||
| 05 | 03:15 | W 13 | 16.09 | Overcast | OVC060 | 12 | 11 | 94% | 76.07 | 0.0 | |||||||
| 05 | 02:50 | SW 17 | 16.09 | Overcast | SCT050 OVC060 | 12 | 11 | 94% | 76.07 | 0.0 | |||||||
| 05 | 02:35 | SW 15 | 16.09 | Overcast | BKN050 OVC055 | 12 | 11 | 94% | 76.07 | 0.0 | |||||||
| 05 | 02:15 | SW 17 | 16.09 | Overcast | BKN047 OVC060 | 12 | 11 | 94% | 76.07 | 0.0 | |||||||
| 05 | 01:55 | Calm | 16.09 | Light Rain | OVC045 | 12 | 11 | 94% | 76.1 | 0.0 | |||||||
| 05 | 01:35 | SE 9 | 14.48 | Light Rain | FEW032 BKN043 OVC095 | 12 | 11 | 94% | 76.12 | 0.0 | |||||||
| 05 | 01:15 | S 9 | 6.44 | Light Rain | SCT030 BKN043 OVC095 | 12 | 11 | 94% | 76.12 | 0.0 | |||||||
| 05 | 00:55 | S 9 | 16.09 | Light Rain | FEW010 SCT029 BKN044 | 12 | 11 | 94% | 76.12 | 0.0 | |||||||
| 05 | 00:35 | E 7 | 11.27 | Light Rain | FEW024 BKN044 OVC100 | 12 | 11 | 94% | 76.12 | 0.0 | |||||||
| 05 | 00:15 | Calm | 9.66 | Light Rain | FEW034 SCT045 BKN065 | 12 | 11 | 94% | 76.15 | 0.0 | |||||||
| 04 | 23:55 | Calm | 16.09 | Light Rain | SCT046 BKN075 OVC090 | 12 | 10 | 88% | 76.15 | 0.0 | |||||||
| 04 | 23:35 | W 19 G 31 | 14.48 | Light Rain | FEW029 SCT046 BKN075 | 12 | 10 | 88% | 76.15 | 0.0 | |||||||
| 04 | 23:15 | Vrbl 9 G 22 | 11.27 | Light Rain | FEW028 SCT041 BKN070 | 12 | 10 | 88% | 76.12 | 0.0 | |||||||
| 04 | 22:55 | Vrbl 7 | 14.48 | Light Rain | FEW033 SCT042 BKN055 | 12 | 11 | 94% | 76.15 | 0.0 | |||||||
| 04 | 22:35 | S 6 | 16.09 | Light Rain | SCT033 SCT042 OVC075 | 11 | 11 | 100% | 76.15 | 0.0 | |||||||
| 04 | 22:15 | Calm | 12.87 | Light Rain | SCT032 BKN037 OVC075 | 11 | 11 | 100% | 76.15 | 0.0 | |||||||
| 04 | 21:55 | SW 7 | 9.66 | Light Rain | BKN029 BKN035 OVC075 | 11 | 10 | 94% | 76.15 | 0.0 | |||||||
| 04 | 21:35 | Calm | 4.83 | Rain | BKN027 OVC033 | 11 | 10 | 94% | 76.17 | 0.0 | |||||||
| 04 | 21:15 | N 15 | 8.05 | Rain | SCT027 BKN033 OVC075 | 11 | 11 | 100% | 76.23 | 0.0 | |||||||
| 04 | 20:55 | N 6 | 14.48 | Light Rain | FEW003 BKN065 OVC075 | 12 | 10 | 88% | 76.2 | 0.0 | |||||||
| 04 | 20:35 | Vrbl 7 G 20 | 16.09 | Light Rain | FEW036 SCT055 BKN065 | 12 | 9 | 82% | 76.1 | 0.0 | |||||||
| 04 | 20:15 | W 15 G 28 | 8.05 | Light Rain | FEW038 SCT050 BKN070 | 12 | 9 | 82% | 76.07 | 0.0 | |||||||
| 04 | 19:55 | W 17 | 16.09 | Light Rain | SCT080 | 12 | 10 | 88% | 76.1 | 0.0 | |||||||
| 04 | 19:35 | W 17 G 31 | 6.44 | Light Rain | FEW080 | 12 | 11 | 94% | 76.1 | 0.0 | |||||||
| 04 | 19:15 | Vrbl 7 G 19 | 14.48 | Light Rain | FEW018 FEW025 SCT080 | 12 | 11 | 94% | 76.12 | 0.0 | |||||||
| 04 | 18:55 | Vrbl 7 | 11.27 | Light Rain | SCT017 SCT055 | 13 | 11 | 88% | 76.12 | 0.0 | |||||||
| 04 | 18:35 | Calm | 16.09 | Light Rain | FEW020 | 13 | 11 | 88% | 76.15 | 0.0 | |||||||
| 04 | 18:15 | Calm | 16.09 | Light Rain | FEW021 FEW070 | 13 | 12 | 94% | 76.15 | 0.0 | |||||||
| 04 | 17:55 | N 11 | 14.48 | Light Rain | FEW019 FEW070 | 13 | 12 | 94% | 76.15 | 0.0 | |||||||
| 04 | 17:35 | N 19 | 9.66 | Light Rain | FEW075 | 13 | 12 | 94% | 76.15 | 0.0 | |||||||
| 04 | 17:15 | N 15 | 14.48 | Light Rain | SCT075 | 13 | 12 | 94% | 76.15 | 0.0 | |||||||
| 04 | 16:55 | N 15 | 16.09 | Light Rain | BKN075 | 14 | 12 | 88% | 76.15 | 0.0 | |||||||
| 04 | 16:35 | N 7 | 16.09 | Light Rain | CLR | 14 | 12 | 88% | 76.12 | 0.0 | |||||||
| 04 | 16:15 | N 11 | 16.09 | Light Rain | CLR | 15 | 12 | 82% | 76.15 | 0.0 | |||||||
| 04 | 15:55 | NW 9 | 16.09 | Light Rain | FEW049 | 16 | 9 | 63% | 76.12 | 0.0 | |||||||
| 04 | 15:35 | W 11 | 16.09 | Light Rain | FEW039 BKN049 | 16 | 9 | 63% | 76.15 | 0.0 | |||||||
| 04 | 15:15 | NW 13 | 16.09 | Light Rain | OVC049 | 17 | 10 | 64% | 76.15 | 0.0 | |||||||
| 04 | 14:55 | Vrbl 9 | 16.09 | Light Rain | OVC049 | 17 | 8 | 56% | 76.15 | 0.0 | |||||||
| 04 | 14:35 | W 15 | 16.09 | Overcast | OVC046 | 17 | 8 | 56% | 76.15 | 0.0 | |||||||
| 04 | 14:15 | SW 11 | 16.09 | Overcast | OVC045 | 17 | 7 | 52% | 76.15 | 0.0 | |||||||
| 04 | 13:55 | SW 13 | 16.09 | Overcast | OVC044 | 17 | 8 | 56% | 76.15 | 0.0 | |||||||
| 04 | 13:35 | W 7 | 16.09 | Light Rain | OVC042 | 17 | 8 | 56% | 76.12 | 0.0 | |||||||
| 04 | 13:15 | NW 13 | 16.09 | Overcast | OVC042 | 18 | 9 | 56% | 76.12 | 0.0 | |||||||
| 04 | 12:55 | Vrbl 11 G 20 | 16.09 | Overcast | BKN042 OVC049 | 18 | 8 | 52% | 76.15 | 0.0 | |||||||
| 04 | 12:35 | NW 11 | 16.09 | Overcast | BKN044 OVC050 | 18 | 9 | 56% | 76.15 | 0.0 | |||||||
| 04 | 12:15 | NW 15 | 16.09 | Overcast | BKN041 OVC046 | 18 | 9 | 56% | 76.15 | 0.0 | |||||||
| 04 | 11:55 | NW 11 | 16.09 | Mostly Cloudy | FEW039 BKN045 BKN055 | 19 | 9 | 52% | 76.15 | 0.0 | |||||||
| 04 | 11:35 | NW 17 | 16.09 | Mostly Cloudy | BKN041 BKN050 | 18 | 9 | 56% | 76.15 | 0.0 | |||||||
| 04 | 11:15 | NW 15 G 24 | 16.09 | Partly Cloudy | FEW033 SCT042 SCT049 | 18 | 10 | 60% | 76.15 | 0.0 | |||||||
| 04 | 10:55 | NW 13 G 22 | 16.09 | Mostly Cloudy | SCT034 BKN041 | 18 | 10 | 60% | 76.15 | 0.0 | |||||||
| 04 | 10:35 | W 13 | 16.09 | A Few Clouds | FEW027 FEW032 | 18 | 11 | 64% | 76.15 | 0.0 | |||||||
| 04 | 10:15 | NW 13 | 16.09 | Partly Cloudy | SCT027 | 17 | 10 | 64% | 76.15 | 0.0 | |||||||
| 04 | 09:55 | NW 13 | 14.48 | Mostly Cloudy | BKN026 | 17 | 11 | 68% | 76.12 | 0.0 | |||||||
| 04 | 09:35 | NW 13 | 16.09 | Partly Cloudy | SCT024 | 17 | 11 | 68% | 76.12 | 0.0 | |||||||
| 04 | 09:15 | Calm | 16.09 | Partly Cloudy | SCT023 | 16 | 11 | 72% | 76.12 | 0.0 | |||||||
| 04 | 08:55 | Calm | 16.09 | Fair | CLR | 15 | 11 | 77% | 76.15 | 0.0 | |||||||
| 04 | 08:35 | Calm | 16.09 | A Few Clouds | FEW009 | 14 | 12 | 88% | 76.15 | 0.0 | |||||||
| Date | Time (pdt) | Wind (kph) | Vis. (km) | Weather | Sky Cond. | Air | Dwpt | Max. | Min. | Relative Humidity | Wind Chill (°C) | Heat Index (°C) | altimeter (cm) | sea level (mb) | 1 hr | 3 hr | 6 hr |
| 6 hour | |||||||||||||||||
| Temperature (ºC) | Pressure | Precipitation (cm) | |||||||||||||||